BMCB-19 Weather Reports


time (UTC)temp
C
wind
direction
speed
KPH
gust
KPH
rain 1hr
cm
rain 24hr
cm
rain mn
cm
humidity
%
barometer
mb
20260506224007 6 0 0.0 0.0 0.00 0.71 0.00 90 1014.1
20260506223004 6 0 0.0 0.0 0.00 0.74 0.00 89 1014.0
20260506222004 6 0 0.0 0.0 0.00 0.74 0.00 88 1014.0
20260506221005 6 0 0.0 0.0 0.00 0.74 0.00 87 1013.9
20260506220005 7 0 0.0 0.0 0.00 0.76 0.74 87 1013.8
20260506215006 7 0 0.0 0.0 0.00 0.79 0.74 86 1013.8
20260506214008 7 0 0.0 0.0 0.00 0.79 0.74 86 1013.7
20260506213005 7 0 0.0 0.0 0.00 0.79 0.74 85 1013.6
20260506212006 7 0 0.0 0.0 0.00 0.81 0.74 85 1013.5
20260506211004 7 0 0.0 0.0 0.00 0.81 0.74 84 1013.5
20260506210004 7 0 0.0 0.0 0.00 0.84 0.74 83 1013.3
20260506205005 7 0 0.0 0.0 0.00 0.86 0.74 82 1013.2
20260506204004 8 0 0.0 0.0 0.00 0.89 0.74 81 1013.1
20260506203005 8 0 0.0 0.0 0.00 0.89 0.74 80 1012.9
20260506200005 9 0 0.0 0.0 0.00 0.91 0.74 79 1012.6
20260506195004 10 0 0.0 0.0 0.00 0.91 0.74 82 1012.5
20260506194004 10 0 0.0 0.0 0.00 0.91 0.74 84 1012.4
20260506193005 10 0 0.0 0.0 0.00 0.94 0.74 85 1012.3
20260506190006 10 0 0.0 0.0 0.00 0.94 0.74 85 1011.9
20260506185005 10 0 0.0 0.0 0.00 0.99 0.74 86 1011.8
20260506184004 10 0 0.0 0.0 0.00 0.99 0.74 85 1011.7
20260506183006 10 0 0.0 0.0 0.00 0.99 0.74 85 1011.6
20260506180004 10 0 0.0 0.0 0.00 1.02 0.74 86 1011.2
20260506175003 10 0 0.0 0.0 0.00 1.04 0.74 87 1011.1
20260506171004 10 0 0.0 0.0 0.00 1.09 0.74 90 1010.8
20260506170004 10 0 0.0 0.0 0.00 1.09 0.74 90 1010.7
20260506164004 10 0 0.0 0.0 0.00 1.09 0.74 89 1010.6
20260506161003 10 0 0.0 0.0 0.00 1.09 0.74 87 1010.7
20260506160004 10 0 0.0 0.0 0.00 1.09 0.74 86 1010.7
20260506155004 10 0 0.0 0.0 0.00 1.09 0.74 86 1010.7
20260506154003 10 0 0.0 0.0 0.00 1.09 0.74 85 1010.7
20260506153003 10 0 0.0 0.0 0.00 1.09 0.74 84 1010.6
20260506152003 11 0 0.0 0.0 0.00 1.09 0.74 84 1010.6
20260506151005 11 0 0.0 0.0 0.00 1.09 0.74 84 1010.6
20260506150003 11 0 0.0 0.0 0.00 1.09 0.74 83 1010.5
20260506145005 11 0 0.0 0.0 0.00 1.09 0.74 85 1010.5
20260506144010 10 0 0.0 0.0 0.00 1.09 0.74 86 1010.5
20260506143005 10 0 0.0 0.0 0.00 1.09 0.74 87 1010.6
20260506142005 10 0 0.0 0.0 0.00 1.09 0.74 87 1010.6
20260506141005 10 0 0.0 0.0 0.00 1.09 0.74 86 1010.6
20260506135004 10 0 0.0 0.0 0.00 1.09 0.74 88 1010.6
20260506132003 10 0 0.0 0.0 0.00 1.09 0.74 84 1010.6
20260506131004 10 0 0.0 0.0 0.00 1.09 0.74 84 1010.5
20260506130004 10 0 0.0 0.0 0.00 1.09 0.74 85 1010.4
20260506123003 10 0 0.0 0.0 0.00 1.09 0.74 84 1010.2
20260506122004 10 0 0.0 0.0 0.00 1.09 0.74 83 1010.1
20260506121009 10 0 0.0 0.0 0.00 1.09 0.74 84 1010.1
20260506120004 10 0 0.0 0.0 0.00 1.09 0.74 86 1010.0
20260506115007 10 0 0.0 0.0 0.00 1.09 0.74 86 1010.1
20260506113007 10 0 0.0 0.0 0.03 1.09 0.74 92 1010.1
20260506112008 9 0 0.0 0.0 0.03 1.09 0.74 93 1010.1
20260506105004 8 0 0.0 0.0 0.03 1.09 0.74 95 1010.3
20260506104004 8 0 0.0 0.0 0.03 1.09 0.74 95 1010.4
20260506103004 8 0 0.0 0.0 0.00 1.07 0.71 95 1010.3
20260506101004 8 0 0.0 0.0 0.03 1.07 0.71 95 1010.2
20260506100004 7 0 0.0 0.0 0.03 1.07 0.71 95 1010.2
20260506095007 8 0 0.0 0.0 0.05 1.07 0.71 95 1010.0
20260506094004 8 0 0.0 0.0 0.05 1.07 0.71 95 1010.0
20260506093007 7 0 0.0 0.0 0.05 1.07 0.71 95 1010.0
20260506092004 7 0 0.0 0.0 0.05 1.07 0.71 95 1009.9
20260506091004 7 0 0.0 0.0 0.05 1.07 0.71 95 1009.8
20260506090004 7 0 0.0 0.0 0.05 1.04 0.71 95 1009.8
20260506085005 7 0 0.0 0.0 0.05 1.04 0.71 96 1009.7
20260506084005 7 0 0.0 0.0 0.03 1.02 0.69 96 1009.6
20260506083005 7 0 0.0 0.0 0.03 1.04 0.69 96 1009.5
20260506082004 7 0 0.0 0.0 0.00 1.02 0.66 96 1009.4
20260506081004 7 0 0.0 0.0 0.00 1.02 0.66 96 1009.4
20260506073004 7 0 0.0 0.0 0.03 1.02 0.66 96 1009.1
20260506072005 7 0 0.0 0.0 0.05 1.02 0.66 96 1009.0
20260506071005 7 0 0.0 0.0 0.05 1.02 0.66 96 1009.0
20260506062008 7 0 0.0 0.0 0.13 0.99 0.64 96 1008.9
20260506061005 7 0 0.0 0.0 0.13 0.99 0.61 96 1008.9
20260506045005 7 0 0.0 0.0 0.13 0.84 0.48 96 1008.8
20260506044008 7 0 0.0 0.0 0.13 0.81 0.46 96 1008.7
20260506043005 7 0 0.0 0.0 0.13 0.79 0.43 96 1008.7
20260506042005 7 0 0.0 0.0 0.13 0.79 0.43 96 1008.7
20260506041005 7 0 0.0 0.0 0.10 0.79 0.43 96 1008.6
20260506035005 7 0 0.0 0.0 0.08 0.81 0.41 96 1008.7
20260506034006 7 0 0.0 0.0 0.05 0.79 0.36 96 1008.7
20260506033011 7 0 0.0 0.0 0.05 0.76 0.33 96 1008.8
20260506032010 7 0 0.0 0.0 0.03 0.74 0.33 96 1008.8
20260506030008 7 0 0.0 0.0 0.05 0.74 0.33 96 1008.8
20260506023005 7 0 0.0 0.0 0.08 0.74 0.33 96 1008.8
20260506022005 7 0 0.0 0.0 0.05 0.71 0.30 96 1008.9
20260506021005 7 0 0.0 0.0 0.08 0.71 0.30 96 1008.8
20260506020005 7 0 0.0 0.0 0.05 0.71 0.28 96 1008.8
20260506015006 8 0 0.0 0.0 0.08 0.71 0.28 96 1008.8
20260506014005 8 0 0.0 0.0 0.05 0.69 0.25 96 1008.8
20260506013006 8 0 0.0 0.0 0.08 0.69 0.25 96 1008.9
20260506012005 8 0 0.0 0.0 0.08 0.66 0.23 96 1008.9
20260506011006 8 0 0.0 0.0 0.10 0.66 0.23 96 1008.9
20260506010005 8 0 0.0 0.0 0.10 0.64 0.23 96 1008.9
20260506005008 8 0 0.0 0.0 0.13 0.64 0.23 96 1009.0
20260506004010 8 0 0.0 0.0 0.10 0.61 0.20 96 1009.0
20260506003008 8 0 0.0 0.0 0.13 0.61 0.20 96 1009.1
20260506001005 8 0 0.0 0.0 0.10 0.58 0.15 96 1009.2
20260506000008 8 0 0.0 0.0 0.10 0.56 0.15 96 1009.2
20260505233012 8 0 0.0 0.0 0.08 0.51 0.10 96 1009.4
20260505232010 8 0 0.0 0.0 0.08 0.51 0.08 96 1009.5
20260505230014 8 0 0.0 0.0 0.05 0.48 0.05 96 1009.5
20260505225010 8 0 0.0 0.0 0.05 0.46 0.05 96 1009.6